Theta_e
296 295 295 295 295 295 295 296 297 297 297 297 298 297 297 298 297 296 293 296 288 284 286 286 286 283 283 283 278 282 281 282 282 278 278 277 276 276 275 274 275 275 276 275 275 273 271 278 277 277 279 280 277 277
295 295 294 294 295 295 295 296 297 297 297 297 297 296 297 297 295 296 290 293 293 284 284 288 287 287 286 285 282 282 281 282 282 280 280 278 277 277 273 274 276 275 275 275 275 275 279 280 280 280 279 280 281 279
294 294 294 294 294 294 295 297 297 297 297 296 296 296 296 296 295 295 291 289 287 284 285 284 283 286 288 286 287 279 284 283 284 284 282 280 277 278 276 276 276 277 278 277 277 280 281 281 281 280 279 280 280 279
294 293 293 294 294 294 296 296 296 296 296 296 296 296 296 296 295 295 291 291 289 286 280 282 287 284 285 285 285 286 284 285 285 285 282 281 278 279 277 277 277 277 278 276 278 280 281 282 282 282 281 279 279 279
293 293 293 293 293 294 296 296 296 296 296 296 295 295 295 295 295 295 294 292 292 286 280 282 282 281 283 283 284 285 286 284 284 283 282 279 280 280 279 280 275 278 275 275 275 279 278 281 282 281 280 280 280 278
292 292 293 292 293 295 295 295 295 296 296 296 295 295 295 295 294 292 285 290 292 288 283 279 279 277 278 280 282 282 284 284 284 283 282 282 282 280 278 275 277 278 278 278 276 278 278 280 280 278 278 278 279 278
291 292 292 292 293 294 295 295 295 295 296 295 295 296 296 295 294 287 285 290 290 288 283 278 277 278 277 277 283 283 284 283 281 282 279 280 280 281 279 275 277 277 277 277 276 276 278 278 276 276 276 275 275 274
291 291 291 292 293 294 294 294 294 295 294 294 295 295 295 295 293 288 292 292 289 284 281 276 276 277 278 279 280 279 280 282 278 277 279 274 279 281 274 276 276 276 275 276 275 274 274 275 275 275 274 274 273 273
291 291 291 291 293 293 294 295 296 295 294 294 294 293 291 287 285 285 291 288 287 284 279 275 274 274 279 277 278 280 277 277 277 275 274 273 278 272 273 272 273 273 271 271 271 272 271 272 273 273 272 272 273 273
290 290 291 291 293 293 294 295 294 294 294 293 289 285 282 284 290 290 286 284 283 280 277 276 271 275 275 276 276 276 277 273 274 271 271 275 274 273 273 273 272 270 269 269 268 272 270 271 269 269 270 271 272 274
290 290 290 291 292 293 294 295 294 292 291 286 283 282 286 290 285 283 279 278 278 277 275 272 272 274 275 275 274 271 273 271 272 271 271 273 272 273 272 270 268 266 266 267 266 268 268 267 267 267 268 270 270 272
289 289 290 290 291 292 293 293 293 290 286 286 286 286 285 282 280 277 275 275 274 274 273 273 272 273 274 272 275 271 272 270 270 266 271 270 273 272 270 268 267 264 264 265 264 264 266 267 266 266 266 268 269 269
289 289 289 290 291 292 292 293 293 292 291 286 283 280 278 277 272 272 272 273 273 273 272 272 272 272 272 273 270 271 271 268 265 269 270 272 272 272 267 264 263 262 261 261 263 263 264 264 262 262 263 263 265 265
288 288 289 289 289 291 291 291 291 288 285 280 276 272 274 273 274 275 275 275 273 272 271 272 271 271 270 270 266 270 263 262 268 267 270 274 273 267 262 262 260 262 260 259 263 262 261 261 261 260 260 260 260 264
288 288 288 287 288 289 290 289 288 284 283 278 276 272 272 274 272 270 268 269 271 272 272 271 271 271 269 268 266 266 265 268 269 271 275 276 271 265 264 265 261 260 259 261 263 261 261 260 260 263 261 262 263 261
287 286 286 286 287 288 288 283 280 279 274 275 273 272 269 270 272 268 268 270 271 272 271 271 271 270 269 268 268 269 270 268 273 274 276 271 267 265 264 262 261 260 260 262 263 262 262 258 259 263 261 261 259 259
285 284 285 286 287 287 283 280 278 271 275 271 272 267 270 271 273 271 271 272 272 272 272 271 269 270 266 267 267 268 271 275 275 273 274 274 271 269 263 260 259 258 261 262 261 260 261 262 257 262 265 266 261 262
284 286 286 286 286 282 278 274 273 272 272 270 271 271 267 269 270 270 270 271 272 273 271 271 269 267 269 269 271 273 271 270 270 273 273 269 268 265 266 269 261 261 264 260 258 260 259 261 266 267 263 264 262 263
284 285 285 285 284 280 277 273 272 272 270 267 267 267 268 269 269 268 270 271 271 271 271 269 270 271 273 273 273 272 271 272 271 269 270 264 265 263 261 262 261 263 262 263 266 267 265 260 262 262 263 263 263 264
284 285 285 282 282 277 273 271 268 271 270 267 266 267 269 270 269 269 270 270 272 272 271 271 272 276 275 275 273 274 273 272 272 271 271 269 267 262 266 267 270 267 266 265 264 258 266 267 264 263 261 260 259 261
282 282 280 277 271 272 270 268 268 267 266 268 266 266 269 268 269 269 270 270 271 272 272 276 276 274 268 266 266 269 270 272 275 276 275 272 268 269 267 266 264 265 267 268 268 267 262 265 262 261 260 260 261 260
278 281 276 274 271 270 268 265 266 266 267 266 267 265 268 268 268 268 265 268 271 274 276 276 274 271 268 268 266 267 268 266 264 265 266 268 269 268 270 270 267 269 267 266 265 264 264 262 260 259 259 260 259 261
279 277 272 271 268 268 263 265 266 265 266 266 266 266 266 266 265 264 265 270 272 274 272 272 270 267 268 263 263 263 263 267 269 269 269 269 267 266 267 264 264 266 267 264 260 261 260 257 259 258 259 260 260 260
275 268 264 264 265 263 263 263 263 264 264 265 265 263 264 264 263 265 266 270 271 267 268 268 270 268 267 266 270 269 265 265 266 264 264 269 270 266 263 263 261 260 260 259 260 260 260 259 256 259 260 258 258 258
264 262 263 258 260 262 260 262 260 262 260 261 261 264 264 262 265 265 265 270 267 266 268 269 271 273 275 272 268 265 257 263 269 269 263 264 263 262 263 262 261 260 257 261 262 260 259 258 259 259 258 257 256 255
258 258 261 263 259 261 262 260 259 261 261 261 262 262 261 264 263 263 267 264 263 262 263 267 270 271 271 270 270 267 264 259 263 269 262 261 261 266 266 265 264 262 256 257 258 259 258 258 258 256 257 257 254 254
257 258 259 255 260 261 260 259 259 262 262 262 264 261 263 263 262 265 261 258 259 257 256 257 257 263 266 264 259 256 254 254 256 259 258 257 257 257 261 263 261 260 256 255 256 256 257 256 256 256 256 256 257 255
261 259 259 257 257 257 257 258 260 261 265 266 265 263 264 265 264 259 258 257 255 255 255 254 253 253 257 257 256 254 253 252 252 255 256 257 256 256 255 257 256 259 256 255 257 256 255 255 255 255 254 254 254 256
259 259 261 251 252 256 258 261 261 261 260 264 267 268 267 260 256 256 256 254 254 255 258 257 255 254 253 253 252 254 256 258 260 259 259 261 261 260 256 256 257 257 257 257 259 261 257 256 255 255 254 254 254 254
259 260 258 252 256 259 262 261 263 260 259 258 258 259 260 258 254 253 253 254 255 255 253 253 253 255 257 257 255 255 253 253 254 259 261 260 260 257 255 256 256 256 256 255 256 256 257 254 255 254 256 257 258 257
257 259 256 256 258 259 257 255 256 257 258 258 257 259 260 257 256 252 252 250 250 250 253 254 253 252 253 255 256 257 256 254 248 250 253 255 255 254 254 254 255 253 252 251 251 251 252 253 255 256 256 255 256 256
256 255 256 254 257 254 253 255 257 258 259 259 259 257 256 258 261 257 251 250 252 254 250 250 252 253 249 249 249 250 249 251 252 252 252 254 254 253 253 253 251 250 249 250 250 252 253 255 255 256 255 255 256 256
255 256 254 252 254 254 254 256 257 261 258 259 258 255 255 256 258 255 250 248 250 251 250 249 249 249 247 248 250 251 252 251 251 259 257 257 256 254 251 249 247 247 251 253 254 255 255 254 254 255 256 256 257 257
Wind_Speed
23 24 25 27 29 28 29 31 33 32 31 28 26 25 27 29 17 6 3 8 4 4 7 3 3 4 3 2 5 6 6 3 3 4 3 3 3 2 2 1 3 4 3 2 0 2 3 1 1 4 3 1 2 2
23 24 25 27 28 29 29 32 34 32 29 25 23 23 23 15 3 5 3 3 3 3 3 2 1 1 3 3 4 3 6 5 4 4 1 0 1 1 3 2 2 1 4 4 5 4 1 1 1 1 2 3 3 3
23 24 25 27 28 29 31 33 31 31 25 20 20 20 18 12 6 3 2 3 2 3 4 3 3 2 1 2 2 4 1 6 4 2 3 2 2 3 1 3 1 3 3 3 3 3 5 5 1 3 2 3 3 3
21 24 25 26 27 28 32 29 29 26 23 19 17 17 16 13 8 5 2 3 1 2 4 2 1 1 3 4 6 7 6 5 5 3 2 1 2 2 3 3 4 4 6 5 2 3 2 6 8 9 3 3 2 1
21 23 25 25 26 29 30 27 26 25 23 19 16 16 14 11 9 4 1 2 3 3 4 2 1 1 5 6 8 7 6 6 3 3 2 3 1 2 1 1 4 6 5 4 3 6 5 5 11 12 10 7 3 2
20 22 24 25 25 28 28 26 25 24 22 21 15 15 13 8 2 1 2 1 2 1 3 3 1 2 4 6 5 5 4 2 3 3 2 2 1 3 2 3 3 4 5 5 6 13 10 10 3 10 8 10 5 2
21 22 23 24 25 27 27 24 24 24 20 12 12 14 14 4 2 1 3 2 3 1 2 3 1 2 2 3 1 2 2 2 3 2 3 3 2 4 2 3 5 7 10 11 2 10 2 5 6 10 6 6 5 4
20 21 22 23 24 26 24 24 23 21 11 12 14 12 15 6 5 1 1 6 2 1 0 3 2 1 5 2 1 3 3 0 4 3 2 3 3 2 3 4 7 10 12 1 7 8 9 11 9 5 4 3 2 3
19 20 21 22 23 24 25 25 21 14 13 14 11 10 3 3 1 2 9 7 3 2 2 1 3 3 4 1 2 1 1 1 1 3 3 3 2 4 3 7 10 10 8 11 13 8 3 2 6 5 5 4 2 2
17 18 19 20 21 22 23 23 14 12 14 8 3 1 1 1 2 4 3 2 2 1 2 1 1 1 4 2 1 3 2 2 1 3 4 1 3 2 3 6 5 8 8 7 5 4 6 4 7 8 5 4 4 1
16 17 18 18 19 20 23 15 12 9 7 3 4 3 2 5 2 2 1 2 1 3 1 2 2 1 2 2 2 3 1 1 0 2 3 1 2 2 5 2 3 5 5 4 3 5 5 6 7 6 6 4 4 2
14 15 16 17 15 18 19 8 8 3 1 1 2 1 2 2 2 3 1 1 3 2 1 1 1 2 1 2 2 1 1 1 1 4 2 1 2 3 4 3 4 5 5 4 3 5 5 5 4 4 4 3 3 3
13 14 14 16 12 17 14 15 12 11 4 1 1 3 1 2 3 4 3 2 2 2 2 1 1 1 1 1 3 1 0 1 2 1 1 1 1 1 3 3 4 5 4 3 3 3 4 3 4 4 3 3 3 3
12 13 14 14 9 14 13 13 10 7 1 1 1 4 3 3 4 2 1 1 2 1 2 1 1 2 1 2 1 1 2 2 1 2 2 3 3 1 2 2 2 4 5 5 5 6 7 7 6 5 5 4 4 5
11 12 13 2 11 14 11 11 7 2 1 2 2 4 4 2 0 2 2 2 2 0 2 2 1 2 1 3 2 3 2 2 3 2 3 4 4 3 2 1 1 4 4 4 4 5 6 6 5 5 5 5 5 4
9 6 3 10 13 13 8 4 2 1 2 2 3 3 1 2 2 2 2 2 2 2 1 1 1 1 1 1 3 5 3 5 4 3 4 6 5 4 3 3 1 2 3 4 3 3 3 3 3 4 4 4 5 4
2 3 6 12 13 5 7 2 1 3 2 3 3 0 1 2 2 1 1 1 2 3 2 1 3 1 3 1 3 4 4 1 4 4 4 4 6 5 3 2 1 2 3 3 3 3 4 3 3 2 4 4 4 2
3 3 9 6 3 2 2 3 2 2 4 2 3 2 2 1 1 1 2 2 4 2 2 0 3 3 3 3 2 2 1 2 4 3 4 3 4 4 3 2 2 2 3 2 2 3 3 4 3 3 4 5 6 3
4 4 3 1 2 1 1 2 2 2 0 1 0 1 1 1 2 1 2 1 1 1 1 2 3 3 3 3 2 2 3 2 3 2 2 2 3 4 3 2 1 3 2 3 2 2 3 2 3 3 4 5 5 5
3 4 7 7 1 2 3 1 1 1 2 2 0 1 1 1 1 1 2 3 3 2 3 4 4 2 2 0 0 1 3 4 5 4 3 3 3 4 4 2 1 1 2 2 3 1 2 2 1 2 3 4 5 6
4 3 5 3 3 4 3 1 1 2 1 1 1 1 0 0 1 2 2 0 3 3 4 3 2 1 2 1 1 1 4 3 2 2 4 4 3 3 3 2 1 1 1 2 2 1 2 3 3 4 4 5 4 5
2 5 2 3 3 2 4 2 2 1 1 1 1 1 1 1 2 1 1 3 4 3 3 2 1 3 3 3 2 0 3 4 3 2 3 7 4 3 2 2 1 0 1 1 2 3 3 3 3 4 4 5 5 5
6 2 3 2 3 3 1 1 1 2 1 0 1 2 2 1 0 0 3 4 4 1 1 1 3 3 4 2 3 2 2 1 2 2 3 3 3 2 2 2 0 1 1 1 1 2 3 4 3 4 5 5 5 6
6 4 3 2 2 2 0 2 1 1 1 1 1 2 2 0 1 2 4 3 1 1 1 2 4 5 3 2 2 2 2 0 4 3 1 2 2 2 2 2 1 0 1 1 1 2 2 3 4 4 4 5 5 5
6 2 2 2 1 2 2 1 2 1 2 1 1 2 1 1 2 3 4 2 1 1 0 1 2 1 2 3 2 2 1 0 2 3 2 1 3 2 1 1 1 1 0 2 2 3 3 3 3 4 5 4 6 8
3 3 2 3 1 2 3 2 3 1 1 2 4 1 1 1 2 6 2 2 2 3 3 2 0 1 1 2 3 2 2 1 1 2 2 1 2 2 1 1 1 2 1 1 2 3 4 4 4 6 6 7 6 7
3 3 1 1 1 3 1 1 1 1 3 5 2 3 3 3 5 1 1 3 3 3 3 4 4 3 3 2 3 3 3 2 3 3 4 3 3 3 2 1 1 2 2 1 1 2 3 5 5 5 6 7 6 6
3 4 5 3 2 1 3 1 3 5 3 1 2 4 3 4 2 2 2 2 2 3 2 1 2 3 3 3 3 4 4 3 3 4 4 3 2 1 2 2 2 3 0 2 2 2 3 4 4 6 7 8 9 7
2 3 4 3 2 1 4 5 4 1 0 2 2 2 1 2 2 2 2 3 3 3 1 1 3 2 3 3 2 3 3 1 3 4 2 1 1 1 2 2 1 1 1 2 5 5 6 5 4 5 7 7 8 8
3 3 4 3 6 5 3 3 1 2 1 1 1 1 2 1 1 1 3 2 1 2 2 2 1 1 3 2 3 2 3 3 2 0 3 2 1 2 2 1 1 2 2 3 4 5 4 3 3 3 5 6 6 7
1 2 3 2 4 2 1 1 1 0 1 1 0 2 1 2 1 1 2 2 1 0 1 1 2 2 2 3 2 3 2 1 1 1 2 3 3 2 1 1 2 2 2 3 3 3 4 3 4 6 7 8 9 9
2 3 4 3 4 1 0 1 1 1 1 2 2 1 0 1 1 1 3 3 1 0 2 1 1 2 1 1 1 1 1 1 1 2 2 2 2 0 1 2 2 2 3 3 2 3 4 6 6 6 7 9 10 10
3 2 1 1 3 3 1 2 1 0 1 1 1 0 1 1 2 1 1 1 2 2 1 1 1 0 1 2 1 2 1 1 1 4 4 4 3 3 2 2 2 2 3 3 4 4 6 7 6 7 8 9 10 10
Wind_Direction
309 316 318 317 320 321 318 320 319 319 322 320 320 318 321 314 262 231 232 184 206 255 284 260 315 305 296 282 307 355 294 172 246 247 295 39 294 86 261 29 351 336 330 54 330 227 108 96 172 318 354 142 272 226
311 316 317 317 319 320 322 317 319 318 316 319 321 322 330 339 21 165 217 167 213 231 314 314 317 341 329 338 309 299 305 293 350 287 61 293 247 247 359 60 173 35 20 7 358 32 19 254 353 31 299 321 343 325
311 314 316 317 320 319 318 320 323 325 317 320 321 323 332 334 333 208 174 157 197 252 225 234 215 130 235 19 317 293 331 353 322 346 325 358 326 313 7 59 40 68 14 352 291 41 4 15 196 243 252 310 341 350
309 314 317 317 318 319 321 326 329 336 337 328 321 320 326 324 327 165 194 170 246 307 281 124 157 238 324 309 288 250 288 282 274 268 281 10 356 352 35 32 35 2 315 339 289 30 359 76 27 3 358 245 285 45
311 314 314 319 318 319 322 330 328 335 329 322 320 318 321 323 322 196 180 190 263 298 328 328 195 63 307 313 312 300 246 269 296 297 308 40 45 290 44 198 54 354 9 352 359 359 325 347 0 360 347 342 297 224
310 310 316 317 317 321 325 326 333 332 324 324 316 318 312 317 144 187 246 196 203 164 284 284 63 332 331 323 331 339 333 314 289 316 18 82 355 313 9 66 44 13 336 335 296 327 295 298 8 9 344 350 349 326
305 310 315 315 317 320 323 329 334 330 333 352 3 354 335 253 154 260 351 22 125 86 262 284 272 64 315 289 320 335 305 33 340 8 27 338 29 338 21 55 1 335 327 319 31 334 257 41 333 335 343 356 25 48
301 308 313 313 316 323 325 323 328 323 335 329 329 342 2 104 109 288 358 135 138 116 313 282 288 217 2 3 328 2 334 193 32 1 31 12 301 8 73 14 342 342 330 5 347 334 287 303 309 329 346 343 23 85
300 307 313 313 320 325 328 326 318 319 315 316 331 323 6 29 315 2 88 86 62 349 314 273 302 357 349 24 298 232 331 45 317 43 39 298 39 50 0 329 336 346 339 313 318 307 332 328 347 356 347 358 327 115
298 307 312 313 322 325 335 330 332 332 332 345 18 347 57 26 346 166 248 229 204 55 18 275 297 325 324 340 71 295 27 32 45 35 295 338 85 91 18 333 330 337 333 324 322 5 354 358 2 346 333 325 341 34
294 305 309 312 321 329 338 344 7 359 27 23 15 0 357 332 257 227 233 254 14 229 19 41 331 318 64 303 42 10 36 12 249 45 332 53 100 58 5 9 6 343 342 355 299 296 295 289 302 319 338 355 349 11
292 303 308 309 320 330 339 357 6 30 172 269 308 300 272 262 237 258 231 186 231 321 138 279 76 339 55 298 257 53 35 254 109 333 294 108 77 354 347 358 360 358 342 339 342 329 338 345 347 332 345 22 15 11
286 300 306 309 320 322 340 345 1 350 345 56 187 236 273 150 242 229 203 185 247 168 166 170 182 340 195 230 75 279 227 47 287 298 40 40 87 53 356 337 339 355 5 7 3 349 358 356 22 25 18 7 359 42
282 296 304 303 311 328 342 344 2 344 303 298 314 272 226 198 242 214 283 11 69 265 166 204 125 319 321 74 360 165 54 282 163 210 191 147 161 200 316 286 342 339 356 348 3 4 9 12 12 11 18 354 350 8
281 300 312 308 324 318 342 347 342 356 272 239 192 247 226 4 197 39 15 289 183 51 175 164 149 254 62 104 28 127 161 226 235 206 133 142 141 155 193 215 301 314 340 345 342 4 356 353 354 344 1 353 4 345
286 318 231 321 320 315 8 32 55 106 66 188 220 249 146 266 172 189 195 238 151 150 185 247 176 184 178 98 184 213 198 219 180 181 132 133 159 179 182 198 191 354 320 317 319 312 317 345 328 328 324 0 343 338
188 213 280 312 302 40 45 92 133 50 246 192 220 228 306 286 304 89 191 129 146 205 229 160 213 193 106 221 239 205 220 120 136 138 140 143 153 170 157 135 176 228 268 288 311 321 310 320 305 309 350 343 325 300
208 244 296 300 16 59 68 35 89 189 241 168 234 136 204 289 299 220 208 192 189 220 195 245 124 194 214 228 228 214 208 46 31 102 134 136 129 113 122 116 133 265 288 295 286 290 291 321 316 355 310 339 308 282
219 282 251 90 89 107 210 123 332 255 330 40 258 230 265 300 247 293 278 226 229 358 205 202 233 226 234 220 249 148 145 170 141 134 91 50 72 129 159 142 262 254 265 298 307 322 323 289 307 329 328 322 315 317
72 79 85 49 160 168 180 125 268 251 263 76 198 216 271 319 16 269 230 195 211 202 225 222 225 221 215 217 232 168 127 136 128 118 125 160 170 168 184 190 234 359 299 242 240 263 296 276 168 342 324 319 315 317
101 89 71 75 57 53 49 24 134 15 105 265 54 292 340 268 231 212 201 342 228 229 239 234 252 92 55 57 346 329 116 157 156 139 155 151 157 192 157 190 224 263 290 317 326 340 264 345 337 325 323 310 306 298
115 74 96 28 83 75 80 28 356 69 274 43 188 264 238 223 199 153 5 224 238 240 212 210 171 138 157 154 162 335 98 111 89 107 91 108 134 180 206 173 169 264 294 360 337 332 333 340 332 319 306 310 310 298
93 71 61 30 92 55 75 277 269 24 272 69 222 247 199 213 140 333 249 234 263 265 45 88 104 57 83 85 92 99 89 122 119 107 102 79 84 76 96 98 65 336 338 96 4 327 325 330 304 304 310 313 314 308
54 60 79 61 40 109 313 53 1 329 305 246 236 267 207 180 347 228 255 248 229 5 230 172 147 107 97 121 174 133 130 187 98 89 50 141 129 99 42 81 78 27 7 356 332 331 334 320 309 310 318 315 309 305
85 350 93 27 340 101 61 8 351 313 268 202 266 258 142 303 234 235 238 250 360 357 53 210 210 341 119 98 96 118 105 270 160 135 138 10 96 120 125 145 138 57 90 308 14 350 324 303 305 320 316 306 312 315
110 287 99 168 93 172 171 174 198 239 243 252 232 67 212 241 239 243 225 9 6 358 357 354 302 140 106 24 120 147 150 169 280 116 109 104 40 6 92 76 352 92 124 24 345 322 307 315 319 319 313 317 307 303
127 219 108 351 31 112 115 42 32 195 245 217 184 169 185 232 241 246 44 35 336 18 333 330 334 349 21 86 81 67 59 26 25 68 84 78 56 20 355 39 56 60 91 159 254 276 313 318 308 316 315 314 305 292
181 168 164 174 147 76 168 184 214 207 235 198 147 196 213 220 269 19 347 22 337 306 305 15 7 344 3 45 81 115 91 82 93 88 99 90 72 56 50 68 53 84 223 236 278 263 259 281 306 315 312 303 300 300
145 172 124 86 45 182 225 206 236 249 12 251 273 287 345 44 21 326 353 327 312 294 283 105 62 88 94 81 56 59 82 48 71 81 84 244 346 84 44 46 40 307 311 312 273 260 267 261 272 287 286 286 292 293
188 188 99 118 156 220 222 172 193 130 183 326 313 267 219 149 70 321 299 321 346 24 29 22 61 294 130 108 122 74 44 20 9 124 154 177 145 80 62 39 330 5 359 323 315 320 331 360 308 291 291 303 309 315
109 125 80 110 224 228 124 347 356 218 212 224 155 276 343 350 155 89 14 9 339 237 194 124 81 36 114 103 86 102 68 6 328 300 15 76 79 73 48 343 21 11 352 346 337 334 327 304 309 313 322 324 318 318
126 140 123 191 255 307 243 166 162 227 183 210 187 135 173 270 263 37 18 341 309 27 36 15 75 67 25 17 334 281 333 117 136 97 86 68 75 47 16 33 32 6 345 332 323 304 299 315 314 322 322 317 318 320
64 59 27 284 341 329 259 108 44 266 216 213 160 106 301 275 191 43 96 25 10 55 77 31 5 330 184 213 151 126 117 102 202 101 117 100 91 69 47 35 25 351 317 325 311 308 322 325 322 320 318 316 317 316